Date,TemperatureHighF,TemperatureAvgF,TemperatureLowF,DewpointHighF,DewpointAvgF,DewpointLowF,HumidityHigh,HumidityAvg,HumidityLow,PressureMaxIn,PressureMinIn,WindSpeedMaxMPH,WindSpeedAvgMPH,GustSpeedMaxMPH,PrecipitationSumIn
2014-1-1,81.5,75.5,71.4,73.2,70.3,64.7,95,84,68,30.13,29.99,8,3,14,0.08
2014-1-2,85.9,75.9,67.9,72.0,69.1,65.6,97,81,55,29.99,29.82,7,2,13,0.01
2014-1-3,72.6,63.2,55.9,70.8,55.1,41.8,96,76,50,30.13,29.84,12,5,18,0.00
2014-1-4,71.2,63.5,56.8,66.8,59.1,53.0,93,86,76,30.12,30.04,5,1,13,0.00
2014-1-6,84.3,72.8,56.1,72.6,63.7,33.3,98,75,41,30.15,29.90,13,4,20,0.18
2014-1-7,56.6,52.4,46.3,50.0,43.9,28.8,91,74,42,30.25,30.14,13,6,22,0.04
2014-1-8,67.6,61.2,47.7,66.7,59.5,45.2,98,94,91,30.25,30.15,8,4,22,0.15
2014-1-9,76.5,71.9,67.6,74.1,70.4,66.5,98,95,90,30.17,30.06,6,3,12,0.41
2014-1-10,81.2,74.5,68.6,73.0,71.0,68.0,99,89,72,30.11,30.00,7,2,15,0.01
2014-1-11,85.1,76.6,71.1,73.8,71.4,69.6,97,85,65,30.06,29.92,8,2,13,0.00
2014-1-12,78.5,71.1,61.4,70.6,63.8,57.2,97,79,48,30.11,29.97,6,2,12,0.00
2014-1-13,81.3,72.1,61.3,71.1,66.9,58.3,98,85,67,30.10,29.97,7,2,13,0.00
2014-1-14,84.2,74.4,67.1,73.2,68.7,66.0,98,84,58,29.99,29.88,5,2,10,0.00
2014-1-15,69.7,64.2,58.1,66.2,58.4,49.7,97,82,59,29.98,29.88,7,2,12,0.23
2014-1-16,59.8,55.5,47.5,55.7,42.3,30.1,89,64,34,30.10,29.88,12,5,19,0.00
2014-1-17,65.6,54.2,43.6,46.3,38.5,30.0,86,57,39,30.17,30.04,5,2,19,0.00
2014-1-18,65.8,56.3,47.6,51.7,43.3,34.8,91,63,40,30.18,30.08,8,2,14,0.00
2014-1-19,70.5,55.3,42.7,52.8,40.3,34.1,88,60,30,30.23,30.09,5,2,8,0.00
2014-1-20,75.9,65.0,54.7,59.6,55.4,51.8,94,73,52,30.14,29.99,4,1,9,0.00
2014-1-21,73.7,65.3,61.1,62.8,59.0,56.6,94,81,60,30.01,29.84,5,2,15,0.00
2014-1-22,64.0,56.8,47.0,60.9,44.2,34.8,96,66,35,30.12,29.84,9,4,18,0.00
2014-1-23,71.1,57.2,44.5,55.1,46.1,34.6,85,68,46,30.23,30.11,6,2,18,0.00
2014-1-24,70.2,60.1,53.4,54.6,52.1,49.9,89,76,55,30.32,30.17,7,3,15,0.00
2014-1-25,77.4,63.5,50.4,61.2,55.0,48.2,93,76,47,30.17,29.99,5,1,11,0.00
2014-1-26,80.6,67.3,54.8,62.8,59.2,53.4,97,77,49,30.04,29.92,5,1,9,0.00
2014-1-27,84.2,72.4,59.1,66.8,62.7,55.2,98,74,39,29.99,29.88,5,1,8,0.00
2014-1-28,84.9,72.3,61.2,69.1,65.3,59.9,98,81,52,30.03,29.90,5,1,8,0.00
2014-1-29,79.4,68.1,59.4,72.1,66.1,58.1,98,93,77,30.03,29.92,7,2,14,0.67
2014-1-30,67.4,63.3,58.3,65.3,62.1,57.2,98,96,89,30.06,29.97,7,2,12,0.57
2014-1-31,82.9,74.0,64.3,74.3,70.2,63.7,99,89,66,30.03,29.94,6,1,9,0.95
2014-2-1,85.0,75.0,68.9,73.4,70.0,67.3,98,86,59,30.08,30.00,7,2,12,0.00
2014-2-2,80.9,74.1,67.2,71.9,69.7,66.1,98,87,67,30.10,29.99,9,2,14,0.08
2014-2-3,83.1,76.3,71.6,73.3,71.0,67.9,95,84,69,30.05,29.95,7,2,13,0.00
2014-2-4,82.5,76.6,70.9,72.5,70.8,68.7,95,83,65,30.08,29.98,9,4,15,0.00
2014-2-5,85.7,76.3,69.4,73.7,71.2,67.1,97,85,61,30.04,29.93,7,2,13,3.33
2014-2-6,85.4,76.2,69.7,74.6,70.3,68.2,99,84,58,30.05,29.96,6,1,13,0.01
2014-2-7,82.9,72.9,66.3,72.5,69.0,65.7,99,88,63,30.08,29.99,5,1,7,0.00
2014-2-8,87.5,75.6,67.3,73.1,68.3,64.1,99,80,50,30.04,29.93,6,2,10,0.00
2014-2-9,76.7,69.2,65.1,68.3,65.0,60.1,98,87,72,30.03,29.94,6,2,13,0.00
2014-2-10,83.0,71.4,63.5,67.7,64.7,61.7,95,81,55,30.04,29.93,5,1,7,0.00
2014-2-11,91.7,69.6,-90.0,89.4,53.2,-99.9,100,69,46,30.01,29.92,4,-74,9,0.01
2014-2-12,83.1,72.5,62.4,70.7,66.3,60.9,97,82,62,29.98,29.77,9,3,19,0.60
2014-2-13,74.6,66.4,55.4,67.8,59.0,50.1,97,79,56,29.93,29.70,11,5,19,0.31
2014-2-14,71.8,59.1,48.5,52.9,45.8,38.3,90,65,33,30.03,29.91,7,2,11,0.00
2014-2-15,80.2,66.1,53.1,62.3,56.1,48.7,96,72,45,30.07,29.92,7,2,16,0.00
2014-2-16,78.6,63.5,49.3,58.3,50.2,43.0,94,66,29,30.14,30.02,8,2,12,0.00
2014-2-17,78.0,66.8,56.4,61.5,57.8,54.2,94,75,52,30.16,30.08,6,2,13,0.00
2014-2-18,79.4,68.7,57.5,64.7,59.6,56.0,97,75,45,30.17,30.09,7,2,13,0.00
2014-2-19,80.2,70.3,60.4,66.3,63.2,58.7,98,80,57,30.12,30.02,6,2,12,0.00
2014-2-20,81.4,74.3,65.4,71.8,67.8,63.0,93,81,64,30.11,30.02,8,4,14,0.00
2014-2-21,85.8,77.9,72.7,72.3,70.6,68.6,93,79,58,30.05,29.96,7,4,12,0.00
2014-2-22,88.8,77.3,68.4,73.7,69.6,67.5,98,79,51,30.06,29.93,6,1,11,0.00
2014-2-23,87.9,77.2,68.3,72.9,70.0,67.1,98,80,52,30.03,29.93,5,2,11,0.00
2014-2-24,87.2,77.3,67.7,71.4,68.1,63.6,97,75,48,29.99,29.90,6,2,9,0.00
2014-2-25,85.2,75.3,68.9,70.7,67.1,62.7,97,77,48,29.99,29.86,6,2,10,0.00
2014-2-26,86.9,75.2,65.1,69.5,65.8,59.2,97,75,43,29.91,29.72,6,2,16,0.00
2014-2-27,78.6,71.9,64.8,70.4,65.8,61.7,95,82,62,29.89,29.71,7,3,12,0.29
2014-2-28,74.8,66.0,60.9,64.2,59.5,54.6,97,81,56,30.03,29.83,6,2,12,0.07
2014-3-1,80.6,68.3,58.8,64.0,59.6,56.5,95,76,51,30.11,30.00,6,2,10,0.00
2014-3-2,80.1,70.3,60.4,64.1,61.0,57.5,97,74,47,30.13,30.02,7,2,12,0.00
2014-3-3,85.7,73.7,61.9,66.4,61.1,52.8,97,69,34,30.03,29.92,6,1,9,0.00
2014-3-4,82.8,72.6,62.7,66.3,64.0,60.0,97,76,49,30.02,29.91,6,2,10,0.00
2014-3-5,85.6,73.4,65.9,70.3,67.0,63.8,97,82,52,29.99,29.87,6,2,11,0.00
2014-3-6,88.6,73.3,66.3,72.5,67.7,63.0,98,84,53,29.94,29.75,11,2,24,0.37
2014-3-7,79.8,70.8,59.0,68.2,61.0,52.4,96,73,41,29.98,29.73,10,4,21,0.00
2014-3-8,74.8,62.3,54.5,60.3,51.3,-99.9,93,71,48,30.09,29.96,6,-13,13,0.00
2014-3-9,72.6,5.0,71.2,60.9,-88.8,-99.9,68,5,66,30.08,30.03,2,-930,11,0.01
2014-3-10,83.3,37.1,67.6,63.6,-24.2,-99.9,85,26,42,30.07,29.92,5,-527,8,0.00
2014-3-11,84.3,36.2,69.8,66.8,-25.0,-99.9,78,28,48,29.98,29.80,7,-540,13,0.00
2014-3-12,86.6,38.7,72.0,71.7,-21.0,-99.9,92,29,49,29.84,29.71,7,-525,22,0.00
2014-3-13,75.9,38.8,63.9,61.0,-16.8,-99.9,77,29,31,30.11,29.80,9,-455,14,0.00
2014-3-14,73.8,33.4,-90.0,56.3,-25.9,-99.9,80,27,48,30.19,30.09,9,-512,16,0.00
2014-3-15,80.4,38.7,66.3,61.7,-20.0,-99.9,83,27,42,30.12,29.99,7,-491,14,0.00
2014-3-16,83.8,40.2,71.2,66.0,-17.0,-99.9,72,30,46,30.00,29.77,10,-486,16,0.00
2014-3-17,88.4,42.1,74.3,71.5,-14.2,-99.9,88,33,51,29.80,29.67,8,-491,16,0.00
2014-3-18,78.3,32.9,-90.0,65.5,-26.1,-99.9,90,31,52,29.96,29.65,9,-532,14,0.00
2014-3-19,84.1,38.3,65.6,67.9,-17.7,-99.9,94,34,56,30.01,29.92,7,-502,14,0.00
2014-3-20,77.5,45.0,67.9,69.6,1.1,-99.9,83,45,56,29.99,29.90,6,-381,12,0.01
2014-3-21,75.4,64.2,61.7,66.5,61.7,60.4,97,92,74,30.00,29.91,5,0,12,0.00
2014-3-22,88.0,78.7,72.0,71.8,63.8,52.6,89,63,32,30.03,29.91,6,2,14,0.05
2014-3-23,90.0,78.4,69.0,68.7,65.1,60.2,88,66,43,30.01,29.88,8,2,16,0.00
2014-3-24,75.5,71.5,67.5,69.7,66.5,63.2,94,85,69,29.99,29.85,7,2,11,0.01
2014-3-25,83.9,71.7,63.7,70.4,64.7,52.1,96,80,51,29.97,29.77,11,4,16,0.31
2014-3-26,70.3,61.9,53.8,54.8,47.1,38.2,81,60,38,30.20,29.97,8,5,18,0.00
2014-3-27,77.7,68.5,57.5,62.7,56.6,52.4,89,67,47,30.24,30.12,9,4,19,0.00
2014-3-28,80.3,75.1,71.2,69.1,64.4,60.6,83,70,58,30.13,29.99,11,6,22,0.00
2014-3-29,85.2,77.0,68.6,73.7,70.6,64.9,93,81,65,30.04,29.87,12,4,22,0.18
2014-3-30,77.2,69.9,60.3,67.5,56.6,35.3,95,67,23,30.02,29.84,10,4,15,0.00
2014-3-31,79.9,68.7,58.1,62.7,56.7,50.2,85,67,46,30.08,30.00,5,3,12,0.00
2014-4-1,80.4,70.4,58.9,63.1,59.4,56.5,97,71,46,30.11,30.03,6,2,12,0.00
2014-4-2,80.4,70.6,59.3,63.0,59.3,55.7,97,70,44,30.13,30.06,7,2,13,0.00
2014-4-3,82.3,73.8,64.8,64.4,61.7,59.3,85,67,49,30.10,30.00,8,3,13,0.00
2014-4-4,84.6,76.1,67.6,65.6,63.2,60.0,83,66,46,30.03,29.93,8,3,14,0.00
2014-4-5,86.8,76.6,66.1,68.6,64.9,61.5,95,69,44,30.00,29.92,7,2,14,0.00
2014-4-6,88.6,77.0,66.0,68.6,64.9,57.2,96,70,35,29.99,29.86,7,3,14,0.00
2014-4-7,89.9,80.6,73.6,74.0,69.2,63.4,85,70,42,29.93,29.81,8,4,14,0.00
2014-4-8,91.4,78.5,67.3,75.0,70.4,62.4,95,78,51,29.87,29.70,12,5,19,0.19
2014-4-9,77.5,70.6,65.2,64.0,55.0,47.2,85,60,35,30.10,29.84,10,5,16,0.00
2014-4-10,77.8,70.2,60.2,57.4,54.1,48.3,79,58,37,30.20,30.08,9,3,16,0.00
2014-4-11,82.2,72.7,62.7,64.5,61.8,57.0,87,70,51,30.17,30.06,8,3,14,0.00
2014-4-12,83.2,74.8,64.9,66.7,63.1,59.2,94,69,45,30.11,30.01,9,4,16,0.00
2014-4-13,77.0,73.4,71.9,71.5,68.9,64.7,95,86,71,30.04,29.93,7,3,11,1.70
2014-4-14,89.5,78.7,69.3,74.3,70.9,67.2,98,79,48,29.94,29.84,8,3,15,0.00
2014-4-15,89.7,80.3,73.0,75.4,71.9,70.0,94,77,55,29.88,29.77,7,3,14,0.08
2014-4-16,83.1,75.6,70.7,72.8,69.3,66.2,95,82,60,30.02,29.86,9,4,12,0.02
2014-4-17,81.9,74.6,71.5,73.5,71.7,69.7,96,91,72,30.08,29.97,8,2,13,0.89
2014-4-18,85.7,78.0,71.4,73.0,70.8,67.7,97,80,59,30.04,29.89,9,4,16,0.19
2014-4-19,90.4,78.1,68.3,73.6,68.6,60.5,96,74,47,29.94,29.82,7,3,13,0.21
2014-4-20,77.9,70.1,65.0,62.7,59.9,56.6,83,71,54,29.99,29.90,7,4,12,0.00
2014-4-21,80.6,70.5,60.7,66.3,61.8,57.9,92,75,53,29.99,29.86,8,4,15,0.00
2014-4-22,80.0,68.5,64.9,66.5,63.6,62.3,93,85,60,29.92,29.85,4,2,8,0.00
2014-4-25,92.5,82.6,71.0,71.1,66.5,57.6,87,60,33,29.97,29.85,6,2,11,0.00
2014-4-26,90.5,79.3,69.2,72.4,67.6,62.9,90,69,42,29.95,29.87,7,3,12,0.00
2014-4-27,89.5,80.9,71.7,71.5,65.7,56.7,90,63,37,29.97,29.88,7,3,12,0.00
2014-4-28,90.0,82.0,75.9,74.0,70.5,64.9,86,69,47,29.93,29.83,7,4,14,0.00
2014-4-29,87.3,80.2,76.3,75.0,73.4,72.6,90,80,62,29.92,29.82,9,3,14,0.00
2014-5-1,86.6,78.4,75.6,72.5,69.9,67.6,83,76,58,29.94,29.88,6,2,13,0.00
2014-5-2,91.8,83.1,75.5,73.2,69.8,65.6,88,66,48,29.93,29.80,7,3,13,0.00
2014-5-3,88.6,77.9,74.0,74.8,71.2,68.9,93,81,56,29.95,29.85,10,1,21,0.10
2014-5-4,85.5,76.2,67.9,71.8,61.4,50.4,96,65,32,30.00,29.91,10,4,15,0.00
2014-5-5,86.5,76.6,66.6,67.3,61.5,55.1,88,62,36,30.00,29.92,7,3,13,0.00
2014-5-6,86.5,77.0,65.6,68.4,64.7,61.0,93,68,45,29.99,29.92,7,2,12,0.00
2014-5-7,86.6,80.2,72.3,69.9,67.5,64.8,82,66,51,30.08,29.95,9,4,16,0.00
2014-5-8,86.6,81.1,76.4,69.8,67.8,64.4,75,64,50,30.13,30.03,10,6,17,0.00
2014-5-9,86.9,81.0,77.0,70.4,68.0,64.3,76,65,48,30.13,30.02,10,6,18,0.00
2014-5-10,86.4,80.7,77.4,72.3,70.4,68.9,79,71,60,30.10,29.99,9,6,16,0.00
2014-5-11,85.6,80.7,77.4,72.1,68.7,59.2,80,68,45,30.08,29.99,7,4,16,0.00
2014-5-12,86.6,80.5,75.9,71.6,68.9,65.3,81,68,51,30.06,29.99,9,5,15,0.00
2014-5-13,86.7,80.7,74.1,75.2,72.2,69.7,93,76,60,30.00,29.92,9,6,18,0.10
2014-5-14,87.1,80.7,73.9,75.2,71.6,68.2,92,75,56,29.99,29.90,12,5,20,0.12
2014-5-15,85.1,76.5,73.5,76.6,73.2,70.4,96,90,72,29.97,29.87,7,2,13,1.00
2014-5-16,77.4,73.4,66.7,73.5,66.2,48.3,97,79,43,30.03,29.89,8,4,13,0.01
2014-5-17,83.9,74.3,63.5,62.2,58.9,53.9,81,60,41,30.05,29.98,11,6,20,0.00
2014-5-18,82.4,76.0,67.5,66.4,62.0,57.3,82,63,50,30.06,29.99,10,5,18,0.00
2014-5-19,83.8,77.8,72.6,66.8,64.2,61.5,73,63,51,30.08,30.01,10,5,20,0.00
2014-5-20,84.3,77.8,68.2,68.4,64.5,59.9,87,65,45,30.12,30.05,9,4,15,0.00
2014-5-21,78.8,74.0,68.6,64.8,63.5,61.2,79,70,60,30.10,30.05,5,1,11,0.00
2014-5-22,88.3,78.1,67.4,68.1,63.6,53.5,91,64,34,30.09,29.99,6,2,11,0.00
2014-5-23,95.4,81.2,69.8,70.1,67.4,62.7,91,66,35,30.05,29.94,6,2,10,0.00
2014-5-24,94.8,82.6,72.0,71.5,68.4,63.2,88,65,38,30.03,29.95,7,2,13,0.00
2014-5-25,91.0,81.4,73.5,74.0,70.6,65.3,90,71,47,30.07,29.96,7,2,13,0.00
2014-5-26,89.0,81.1,72.0,74.0,70.3,65.3,94,71,47,30.11,30.02,7,3,14,0.00
2014-5-27,88.8,81.1,72.8,73.0,69.9,64.1,93,70,47,30.08,29.98,8,3,13,0.00
2014-5-28,89.9,81.3,74.4,74.2,71.1,67.7,90,73,50,30.02,29.92,8,3,15,0.00
2014-5-29,84.8,76.2,70.5,74.9,72.1,64.3,93,87,64,30.01,29.90,8,1,15,1.71
2014-5-30,89.1,80.1,72.0,75.4,72.1,69.3,96,78,54,29.97,29.90,7,3,11,0.05
2014-5-31,88.6,81.2,74.2,74.8,72.4,67.5,94,76,51,29.97,29.90,7,2,12,0.00
2014-6-1,86.7,80.7,75.0,75.9,73.0,70.9,92,78,63,29.98,29.91,9,3,17,0.06
2014-6-2,81.1,77.9,74.5,74.6,72.4,69.4,94,83,72,30.03,29.93,7,4,15,0.63
2014-6-3,82.9,78.4,74.7,69.9,67.2,63.4,78,69,60,30.00,29.92,7,3,14,0.00
2014-6-4,81.9,76.8,72.2,72.9,70.1,65.9,93,80,67,29.93,29.86,7,2,11,0.12
2014-6-5,88.5,79.6,70.5,71.1,67.7,63.7,93,69,50,29.93,29.83,7,2,14,0.00
2014-6-6,93.4,81.6,70.4,74.6,69.4,65.1,92,69,41,29.94,29.85,8,2,14,0.00
2014-6-7,95.5,83.0,75.4,76.3,73.1,67.6,94,74,42,29.95,29.87,7,2,13,0.00
2014-6-8,91.8,78.8,74.4,76.0,71.6,67.0,88,79,55,29.95,29.87,8,1,18,0.03
2014-6-9,94.5,77.2,70.5,75.0,71.2,65.7,97,84,46,29.95,29.85,11,1,15,1.23
2014-6-10,88.6,78.5,71.6,77.3,72.2,67.2,98,82,60,29.98,29.91,6,1,9,0.00
2014-6-11,93.1,79.2,73.1,76.1,71.8,68.5,96,79,53,29.97,29.89,10,1,19,0.01
2014-6-12,94.2,78.4,70.3,75.4,70.0,62.9,94,78,37,30.00,29.89,9,2,21,1.06
2014-6-13,93.0,76.0,70.5,76.9,71.0,65.2,97,86,49,30.02,29.91,16,2,27,2.77
2014-6-14,91.4,79.0,70.1,77.8,73.2,69.2,98,84,56,30.04,29.94,6,2,11,0.18
2014-6-15,90.1,84.0,80.4,75.6,73.9,71.1,84,72,60,30.07,29.99,8,2,11,0.00
2014-6-16,88.6,81.6,75.6,76.6,72.5,67.4,95,75,54,30.09,30.00,8,3,14,0.00
2014-6-17,81.4,76.8,71.0,73.9,71.2,68.6,94,83,68,30.09,30.00,8,2,17,0.33
2014-6-18,82.4,75.2,73.1,75.7,72.8,71.5,96,92,72,30.05,29.99,5,0,9,0.00
2014-6-21,81.8,75.9,73.4,75.0,73.7,70.9,95,93,77,29.97,29.89,10,1,17,1.09
2014-6-22,95.2,79.6,73.0,76.6,72.9,68.2,97,82,46,29.97,29.86,6,1,14,0.22
2014-6-23,96.8,82.9,72.2,76.9,72.4,63.0,97,73,34,30.05,29.90,7,2,12,0.00
2014-6-24,95.4,84.2,75.4,75.7,73.0,69.8,92,71,44,30.09,30.01,6,2,12,0.00
2014-6-25,94.1,82.9,75.8,77.6,74.8,71.2,94,78,52,30.08,29.98,6,1,12,0.00
2014-6-26,92.7,81.5,72.9,78.4,74.4,68.1,96,80,52,30.06,29.92,10,2,17,0.42
2014-6-27,91.8,83.3,77.4,78.2,74.0,69.8,96,75,51,30.08,29.95,6,2,10,0.00
2014-6-28,92.3,83.1,74.6,77.1,73.1,69.0,94,73,49,30.09,30.00,6,2,9,0.00
2014-6-29,85.0,77.1,74.6,74.6,72.6,68.6,91,86,59,30.07,29.99,8,1,14,0.41
2014-6-30,91.8,80.8,73.9,76.4,73.4,71.2,93,79,53,30.01,29.84,9,3,15,0.00
2014-7-1,90.2,81.8,75.0,77.0,73.5,69.0,92,78,50,29.89,29.77,8,3,14,0.28
2014-7-2,94.5,80.2,73.8,79.4,75.0,71.3,94,85,54,29.95,29.81,10,1,18,1.05
2014-7-3,96.9,85.0,74.9,78.9,75.1,68.5,96,74,47,30.05,29.93,8,2,13,0.01
2014-7-4,96.8,81.4,71.5,78.6,74.8,68.7,97,82,46,30.09,30.01,12,2,18,1.86
2014-7-5,86.2,78.9,74.2,78.4,74.3,69.4,98,86,67,30.09,30.00,6,1,8,0.12
2014-7-6,88.1,78.0,74.1,78.8,74.6,70.7,97,89,69,30.06,29.97,6,0,12,0.55
2014-7-7,89.1,78.9,74.8,78.0,74.8,71.2,98,88,65,30.06,29.96,4,1,9,0.01
2014-7-9,75.1,75.1,75.1,73.9,73.9,73.9,96,96,96,30.05,30.05,0,0,0,0.00
2014-7-10,86.4,76.9,73.5,78.2,74.1,71.6,98,91,68,30.08,30.00,5,1,8,0.72
2014-7-11,91.5,83.1,74.2,78.7,75.2,73.1,98,79,56,30.08,29.99,7,3,11,0.00
2014-7-12,90.6,82.5,76.4,78.7,75.2,73.2,94,80,58,30.07,30.00,7,3,14,0.12
2014-7-13,90.6,83.5,75.9,77.0,74.5,71.6,94,75,57,30.04,29.98,8,2,11,0.01
2014-7-14,94.2,82.5,76.6,78.7,75.1,72.5,96,80,51,30.05,29.97,6,1,8,0.10
2014-7-15,92.2,79.8,75.8,78.1,75.1,73.6,94,87,56,29.99,29.94,2,0,3,0.00
2014-7-16,79.2,79.0,78.8,74.9,74.6,74.3,87,86,86,29.95,29.93,0,0,1,0.35
2014-7-17,91.8,79.9,70.5,78.7,74.8,68.4,97,85,62,30.03,29.90,15,1,22,0.96
2014-7-18,95.6,84.4,75.5,78.4,75.3,69.4,97,76,45,30.04,29.94,7,2,11,0.02
2014-7-19,96.4,83.8,76.1,79.2,75.6,72.4,96,78,47,30.03,29.94,7,1,12,0.33
2014-7-20,95.4,85.1,76.7,79.1,75.7,68.5,96,75,43,30.01,29.92,6,1,9,0.00
2014-7-21,93.3,79.9,76.4,79.3,75.9,73.4,96,88,59,30.00,29.93,7,1,12,2.22
2014-7-22,90.8,81.2,75.3,79.5,76.2,73.8,97,86,59,30.00,29.92,5,1,7,0.05
2014-7-23,91.6,80.8,76.2,79.5,76.7,73.1,97,88,64,30.05,29.96,7,1,12,0.72
2014-7-26,90.4,84.0,78.4,80.1,75.9,71.6,96,77,56,30.06,29.98,3,1,8,0.00
2014-7-27,99.2,85.9,77.1,78.5,75.2,69.9,95,73,41,30.06,29.98,8,1,10,0.38
2014-7-28,81.7,80.5,79.3,78.2,77.6,76.8,94,91,89,30.03,29.98,1,0,3,0.00
2014-7-29,87.7,78.4,75.2,76.5,74.0,71.5,93,87,65,29.94,29.89,14,2,23,0.48
2014-7-30,98.0,83.4,76.3,79.4,76.1,72.3,96,81,45,29.94,29.85,6,1,11,0.18
2014-7-31,96.2,82.0,77.4,78.2,75.8,72.6,94,83,50,29.96,29.89,4,1,9,0.03
2014-8-1,94.9,83.2,76.3,79.6,75.3,71.7,96,79,49,29.95,29.86,8,1,12,0.01
2014-8-2,92.7,82.8,76.9,80.1,76.8,72.3,96,83,54,29.92,29.83,6,1,11,0.53
2014-8-3,88.5,81.3,73.2,79.8,77.1,68.9,96,87,72,29.91,29.81,7,2,12,0.66
2014-8-4,90.5,78.0,74.0,78.2,74.4,72.6,96,89,58,29.97,29.82,6,1,11,1.64
2014-8-5,92.8,82.4,75.4,79.0,75.3,72.4,96,80,56,30.02,29.91,6,1,12,0.00
2014-8-6,95.7,83.5,75.7,78.0,75.9,72.8,97,79,49,30.01,29.93,6,1,10,0.24
2014-8-7,97.6,84.7,75.3,79.3,75.8,68.0,96,77,39,29.98,29.87,6,2,12,1.11
2014-8-8,95.7,83.8,75.2,77.6,75.2,72.2,95,77,50,30.00,29.92,5,2,9,0.00
2014-8-9,99.0,87.0,77.7,79.4,75.2,69.9,96,71,41,30.03,29.94,6,1,9,0.00
2014-8-10,99.3,85.5,78.4,80.0,74.8,68.3,93,73,37,30.02,29.93,6,1,12,0.00
2014-8-11,97.6,85.4,76.4,78.3,73.4,69.6,95,69,42,30.02,29.93,8,1,14,0.00
2014-8-12,94.1,85.0,77.6,77.8,74.6,71.7,93,72,50,29.99,29.91,7,2,12,0.00
2014-8-13,99.4,86.5,77.2,78.3,74.5,69.0,91,70,39,29.98,29.91,7,1,11,0.00
2014-8-14,96.6,83.8,77.8,78.4,76.3,74.2,93,80,50,30.00,29.92,9,1,20,0.36
2014-8-15,96.2,79.7,73.2,79.0,75.0,69.1,96,87,50,30.02,29.91,10,1,20,0.47
2014-8-16,99.1,82.0,74.6,79.9,74.5,68.6,96,81,39,30.06,29.94,7,1,12,0.41
2014-8-17,94.0,82.5,75.1,80.7,75.8,70.1,98,82,55,30.05,29.98,8,1,14,0.93
2014-8-18,97.3,84.9,76.0,79.7,75.7,71.9,98,76,45,30.03,29.91,6,1,9,0.00
2014-8-19,95.9,86.6,78.1,80.0,75.8,71.4,95,73,48,29.99,29.90,5,1,9,0.00
2014-8-20,96.2,87.6,82.5,79.8,75.8,73.5,82,69,51,30.03,29.98,5,2,10,0.22
2014-8-21,93.8,83.5,78.3,80.3,77.1,73.6,97,82,53,30.07,29.99,6,1,13,0.16
2014-8-22,83.9,82.5,81.4,75.3,74.6,73.8,81,77,74,29.97,29.94,1,0,5,2.19
2014-8-23,93.8,84.9,76.2,78.8,75.8,72.1,97,76,51,29.94,29.80,6,2,10,0.00
2014-8-24,95.9,85.8,77.0,78.5,75.1,71.1,96,72,47,29.82,29.68,6,2,13,0.00
2014-8-25,92.8,82.9,78.9,80.0,77.4,74.4,94,84,63,29.74,29.65,9,3,15,0.55
2014-8-26,91.8,84.4,78.2,76.5,73.6,69.7,88,71,55,29.84,29.71,9,3,16,0.00
2014-8-27,93.0,84.2,76.5,75.1,72.8,70.5,89,70,49,29.93,29.82,6,2,13,0.00
2014-8-28,92.9,83.0,78.7,79.5,76.5,73.8,92,81,60,29.97,29.87,8,1,15,0.01
2014-8-29,94.3,85.9,78.4,80.0,76.6,72.7,95,75,51,30.04,29.92,7,2,15,0.00
2014-8-30,92.3,86.3,80.9,78.6,76.0,68.6,88,72,55,30.05,29.97,7,3,13,0.02
2014-8-31,91.7,85.3,76.9,78.6,75.5,70.6,91,73,57,30.05,29.98,9,3,16,0.01
2014-9-1,92.4,85.4,77.9,77.7,75.0,71.5,90,72,53,30.04,29.96,8,2,13,0.24
2014-9-2,90.4,82.1,75.5,77.4,74.0,70.2,96,78,54,30.03,29.92,7,2,12,0.49
2014-9-3,88.9,81.6,75.2,76.8,73.8,70.7,96,78,56,30.00,29.90,8,2,13,0.01
2014-9-4,95.1,83.2,74.0,77.4,73.9,70.5,95,75,46,30.06,29.95,6,1,11,0.09
2014-9-5,91.9,84.1,78.6,79.8,76.9,74.2,96,80,60,30.06,29.95,8,2,14,0.00
2014-9-6,85.2,80.3,75.6,79.8,77.4,70.9,96,91,81,30.03,29.89,8,1,12,0.97
2014-9-7,90.3,80.3,76.8,76.6,75.1,73.1,95,85,60,29.98,29.89,7,1,12,0.00
2014-9-8,91.9,83.2,74.9,77.7,73.7,70.7,94,75,54,30.00,29.91,7,3,13,0.00
2014-9-9,90.3,82.7,75.0,76.0,73.2,70.2,94,74,54,29.99,29.91,7,2,16,0.31
2014-9-10,89.5,81.2,75.3,78.2,74.3,71.2,96,81,59,29.95,29.88,7,2,14,0.11
2014-9-11,86.4,77.6,74.8,77.1,74.4,72.6,95,90,69,29.96,29.88,3,0,12,0.31
2014-9-12,87.5,78.3,72.3,76.2,73.2,70.8,97,85,61,29.96,29.86,7,2,13,1.59
2014-9-13,89.0,79.4,72.7,77.0,73.7,71.0,97,84,59,30.04,29.92,13,2,22,1.94
2014-9-14,91.4,79.8,73.6,75.5,73.1,70.0,97,82,53,30.08,29.98,5,1,12,0.05
2014-9-15,91.2,82.6,74.4,78.5,74.6,72.2,97,78,55,30.09,30.01,5,2,9,0.00
2014-9-16,90.9,80.0,72.7,78.2,74.9,69.3,97,85,58,30.07,29.92,12,1,15,1.15
2014-9-17,91.9,79.1,73.5,76.1,73.4,70.9,97,84,52,29.96,29.86,4,1,7,0.57
2014-9-18,91.4,80.8,74.0,77.3,74.4,72.4,97,82,57,29.89,29.80,10,1,15,1.21
2014-9-19,89.6,78.6,75.1,78.9,75.3,73.3,98,90,61,29.91,29.82,5,1,10,0.63
2014-9-20,92.6,79.3,74.9,78.1,74.8,71.6,98,87,56,29.91,29.80,6,1,14,0.29
2014-9-21,92.5,80.4,73.6,76.5,73.2,69.0,97,81,47,29.99,29.86,6,1,11,0.60
2014-9-22,88.8,78.9,74.2,77.9,74.7,72.3,97,87,67,30.00,29.88,6,1,9,0.06
2014-9-23,83.4,77.2,73.3,76.3,73.1,70.6,97,88,72,29.99,29.86,7,1,14,0.02
2014-9-24,87.3,80.2,74.4,76.9,74.1,71.9,93,82,64,29.99,29.90,4,1,7,0.00
2014-9-25,88.1,79.8,74.8,78.9,75.5,71.1,97,87,72,29.99,29.90,7,2,12,0.10
2014-9-26,90.7,81.7,75.7,78.5,75.8,72.0,97,83,59,29.94,29.85,7,2,13,0.13
2014-9-27,89.7,83.2,76.5,78.4,75.9,74.0,95,79,62,29.93,29.84,8,2,14,0.00
2014-9-28,90.3,82.7,76.7,77.8,75.4,71.9,96,80,57,29.93,29.83,7,2,12,0.00
2014-9-29,92.1,81.5,75.5,77.6,74.9,73.5,96,82,57,29.89,29.74,6,1,12,0.35
2014-9-30,90.6,81.2,75.0,80.1,75.9,73.8,97,85,63,29.83,29.75,6,1,12,0.08
2014-10-1,94.0,84.0,77.0,79.4,76.0,72.9,97,78,55,29.92,29.80,7,1,10,0.00
2014-10-2,92.1,84.4,77.7,77.9,75.8,73.0,94,77,55,29.98,29.88,5,2,9,0.00
2014-10-3,94.8,83.3,76.6,79.4,75.3,71.4,96,79,53,29.98,29.86,7,1,10,0.01
2014-10-4,91.6,82.6,75.1,78.5,74.5,70.9,96,78,53,29.93,29.76,9,3,15,0.00
2014-10-5,85.6,76.7,69.6,72.2,64.2,58.7,82,66,45,29.94,29.84,6,4,13,0.00
2014-10-6,85.5,77.9,71.0,71.3,69.2,66.9,91,75,59,30.00,29.90,7,2,14,0.00
2014-10-7,83.8,79.1,75.1,75.3,73.1,70.8,92,82,72,30.04,29.93,7,1,12,0.00
2014-10-8,88.3,80.7,73.4,77.1,74.1,72.2,97,81,62,30.05,29.95,6,2,11,0.00
2014-10-9,89.5,81.8,74.9,74.8,72.4,68.2,90,74,51,30.00,29.92,9,3,15,0.00
2014-10-10,87.8,81.4,73.2,73.4,70.7,65.3,92,71,48,29.98,29.88,8,4,14,0.00
2014-10-11,89.1,81.4,73.3,73.3,70.7,67.4,90,71,51,29.96,29.89,7,2,11,0.00
2014-10-12,89.0,80.7,72.8,75.5,73.0,69.2,95,78,61,30.00,29.92,7,3,14,0.00
2014-10-13,87.6,82.0,77.2,76.6,73.7,71.6,90,76,66,30.02,29.94,9,4,16,0.02
2014-10-14,89.5,82.9,75.0,76.7,74.9,72.5,92,77,63,29.97,29.86,9,3,14,0.18
2014-10-15,93.3,80.8,74.2,79.0,75.1,72.0,98,84,53,29.94,29.83,4,1,10,0.03
2014-10-16,85.0,77.9,71.5,75.4,65.8,60.8,90,68,47,29.92,29.81,8,4,12,0.00
2014-10-17,83.1,74.6,67.5,65.7,61.6,57.4,84,66,43,29.94,29.84,6,2,10,0.00
2014-10-18,87.5,75.9,64.4,70.1,63.8,54.5,97,70,36,29.93,29.84,4,1,10,0.00
2014-10-19,87.0,76.7,68.7,69.2,66.9,63.8,95,74,49,29.97,29.88,6,1,8,0.00
2014-10-20,86.3,77.0,68.5,73.1,69.0,63.7,96,78,50,29.97,29.87,5,1,9,0.00
2014-10-21,83.7,76.7,74.0,74.9,71.9,69.0,95,85,72,29.92,29.84,5,1,9,0.00
2014-10-22,83.5,76.7,72.4,73.8,72.0,70.1,96,86,69,29.92,29.84,3,0,6,0.00
2014-10-23,77.3,75.3,73.4,74.5,71.5,68.0,96,88,76,29.89,29.82,10,3,15,0.14
2014-10-24,80.2,77.5,72.0,70.7,69.8,67.3,86,77,72,29.85,29.75,9,5,16,0.00
2014-10-25,84.3,74.8,67.1,67.5,64.0,59.1,86,71,45,29.89,29.79,7,4,16,0.00
2014-10-26,83.8,74.0,64.5,66.2,62.4,55.8,88,69,42,29.97,29.84,6,3,11,0.00
2014-10-27,83.5,73.0,62.3,66.6,63.8,59.9,94,75,53,30.03,29.92,6,2,12,0.00
2014-10-28,85.7,75.7,66.7,69.8,66.1,61.8,96,74,47,30.08,30.00,8,2,13,0.00
2014-10-29,88.9,77.3,70.5,72.2,67.5,64.9,96,74,48,30.04,29.92,4,1,7,0.00
2014-10-30,87.3,76.7,67.7,72.7,66.5,60.3,97,73,42,29.94,29.80,4,1,9,0.00
2014-10-31,85.8,76.3,66.8,70.7,66.8,53.3,96,74,52,29.85,29.70,8,2,11,0.00
2014-11-1,76.6,66.7,56.7,59.6,51.4,37.6,89,59,38,30.09,29.85,10,5,21,0.00
2014-11-2,69.8,59.5,50.3,51.6,42.8,36.4,78,56,32,30.20,30.09,9,5,19,0.00
2014-11-3,77.2,67.2,56.3,59.2,53.4,45.7,74,62,47,30.24,30.16,9,5,16,0.00
2014-11-4,79.5,73.9,65.1,63.9,58.5,52.6,72,59,44,30.19,30.08,11,4,17,0.00
2014-11-5,81.3,76.4,71.8,67.8,66.0,63.8,79,70,59,30.13,30.00,10,5,19,0.00
2014-11-6,84.5,74.7,66.9,67.9,64.1,60.6,92,71,50,30.06,29.91,5,1,10,0.00
2014-11-7,82.1,73.9,66.8,67.3,65.2,62.6,92,76,53,29.93,29.83,6,2,11,0.00
2014-11-8,87.6,75.4,64.5,69.6,65.4,61.8,97,74,45,29.88,29.76,4,1,8,0.00
2014-11-9,72.9,68.0,65.2,69.3,66.3,63.6,97,94,80,29.85,29.77,6,1,11,1.17
2014-11-10,76.4,68.2,64.2,66.7,64.5,62.3,97,88,68,29.89,29.81,6,2,10,0.27
2014-11-11,79.7,69.7,61.0,62.9,59.4,52.8,97,73,41,29.91,29.81,7,2,13,0.01
2014-11-12,81.7,71.2,61.8,65.8,61.7,57.3,92,73,55,29.97,29.88,7,3,13,0.00
2014-11-13,84.8,74.3,64.7,69.4,65.5,62.6,95,76,48,29.98,29.87,5,2,7,0.00
2014-11-14,81.0,71.3,63.9,68.6,63.5,56.1,98,79,44,30.04,29.90,5,2,10,0.01
2014-11-15,81.8,70.9,63.0,68.2,64.3,60.9,94,81,60,30.13,30.01,6,2,12,0.00
2014-11-16,82.8,74.8,67.2,72.2,68.3,64.3,94,81,63,30.13,29.98,8,2,13,0.00
2014-11-17,88.4,79.9,73.7,77.2,73.5,71.3,96,82,60,29.98,29.86,6,2,11,0.02
2014-11-18,75.7,65.5,54.9,73.1,62.6,51.4,95,90,83,30.15,29.90,9,4,16,0.05
2014-11-19,63.9,58.1,52.0,60.3,55.0,50.4,95,90,83,30.18,30.09,9,4,13,0.24
2014-11-20,77.0,68.3,59.0,65.4,60.7,56.4,92,78,65,30.14,30.03,10,5,16,0.00
2014-11-21,74.0,71.2,68.0,68.4,66.7,63.8,96,86,74,30.14,30.04,9,5,14,0.11
2014-11-22,78.4,75.9,71.9,72.7,70.5,67.5,91,83,77,30.13,30.00,9,6,21,0.17
2014-11-23,84.3,79.1,75.9,75.3,73.7,72.3,91,84,72,30.00,29.85,9,4,16,0.01
2014-11-24,89.2,80.7,74.5,78.1,75.4,73.5,97,85,62,29.98,29.87,5,2,12,0.00
2014-11-25,85.7,79.9,76.8,76.3,74.9,72.1,96,85,66,29.98,29.85,9,3,18,0.00
2014-11-26,81.0,68.9,57.0,77.0,63.8,46.9,96,84,63,30.14,29.85,10,5,18,0.64
2014-11-27,71.8,61.9,53.9,55.5,48.2,38.1,84,63,34,30.22,30.08,9,5,17,0.00
2014-11-28,68.8,58.8,49.3,53.9,49.2,43.1,85,71,55,30.20,30.09,8,5,15,0.00
2014-11-29,75.6,63.4,51.7,58.5,54.1,49.1,93,73,51,30.19,30.11,8,3,13,0.00
2014-11-30,77.5,69.7,58.3,65.6,59.2,54.3,93,71,50,30.22,30.14,10,4,18,0.00
2014-12-1,79.8,72.5,65.9,69.1,66.3,62.6,94,81,64,30.22,30.10,9,3,18,0.17
2014-12-2,74.1,71.0,68.4,70.7,67.6,64.8,95,89,75,30.12,30.02,8,2,13,1.81
2014-12-3,81.0,72.9,67.8,69.8,67.2,64.3,96,84,60,30.08,29.99,9,3,15,0.60
2014-12-4,80.3,73.5,66.7,71.0,68.3,65.2,96,84,68,30.09,30.00,8,3,15,0.01
2014-12-5,81.3,73.8,69.8,72.6,70.0,67.9,97,88,68,30.14,30.04,9,2,16,0.68
2014-12-6,80.3,72.3,66.1,69.8,65.9,62.8,98,82,60,30.14,30.02,5,2,10,0.00
2014-12-7,78.0,68.8,64.3,68.4,64.7,61.4,97,87,70,30.03,29.93,8,3,12,0.00
2014-12-8,75.3,65.4,57.6,62.9,59.6,56.2,97,83,57,30.03,29.92,5,2,9,0.01
2014-12-9,67.3,61.6,53.6,60.8,57.5,48.3,96,87,73,30.00,29.91,10,4,14,0.00
2014-12-10,64.1,55.2,48.3,49.8,43.1,36.6,91,67,37,30.10,29.99,7,3,16,0.00
2014-12-11,67.6,58.0,47.2,54.7,51.1,44.3,97,79,59,30.16,30.05,4,1,14,0.00
2014-12-12,65.6,58.3,51.6,53.5,49.9,43.6,97,75,45,30.19,30.07,6,3,11,0.00
2014-12-13,74.3,62.6,53.7,57.5,51.2,44.5,89,68,36,30.10,29.98,7,4,12,0.00
2014-12-14,75.5,63.0,53.9,56.3,50.1,42.6,87,64,45,30.05,29.95,5,2,12,0.00
2014-12-15,77.5,64.4,53.6,58.8,53.7,49.1,92,71,41,30.08,29.98,4,1,7,0.00
2014-12-16,77.3,65.5,55.5,58.7,55.1,50.9,89,71,50,30.15,30.05,4,1,7,0.00
2014-12-17,79.0,68.0,53.3,60.3,57.0,50.4,96,70,42,30.16,30.02,4,1,7,0.00
2014-12-18,76.6,66.2,58.2,62.9,58.7,55.6,96,78,57,30.12,29.99,5,1,8,0.00
2014-12-19,78.5,66.2,55.8,64.3,58.9,53.2,96,79,55,30.06,29.95,5,1,9,0.00
2014-12-20,80.8,67.5,57.5,65.1,61.3,56.3,98,82,55,30.05,29.96,5,1,9,0.00
2014-12-21,81.1,70.6,61.5,68.9,64.5,60.3,97,82,61,30.05,29.95,6,1,11,0.00
2014-12-22,84.1,74.0,64.4,70.8,67.6,62.8,97,82,52,29.98,29.86,6,2,10,0.00
2014-12-23,83.7,74.8,66.9,73.2,69.5,65.7,98,85,65,29.92,29.84,9,3,13,0.00
2014-12-24,85.2,78.0,72.9,74.8,72.9,70.1,93,85,67,29.92,29.84,8,3,13,0.01
2014-12-25,77.3,70.1,66.9,74.7,63.5,55.1,95,80,60,30.12,29.89,9,3,14,0.42
2014-12-26,73.5,68.8,64.1,72.2,65.9,58.6,97,91,79,30.14,30.06,4,1,12,0.09
2014-12-27,82.3,72.9,66.3,74.8,68.8,65.7,99,88,63,30.18,30.08,4,1,7,0.01
2014-12-28,82.5,72.8,63.8,71.7,67.8,62.9,98,85,63,30.11,30.02,6,1,9,0.00
2014-12-29,84.8,74.7,67.0,73.9,68.8,65.9,98,83,61,30.08,29.99,6,2,10,0.00
2014-12-30,85.5,75.2,69.0,72.6,69.0,66.1,96,82,55,30.14,30.02,4,0,7,0.00
2014-12-31,80.1,72.8,68.7,70.9,69.3,66.9,97,89,66,30.16,30.06,5,2,9,0.00
2015-1-1,79.9,72.2,68.8,72.3,70.1,67.8,97,93,74,30.15,30.05,4,0,9,0.40
2015-1-2,80.5,71.6,68.6,74.3,70.2,67.7,98,96,76,30.18,30.10,7,1,11,0.21